Regional Weather Roundup
Issued by NWS

Home | Current Version | Previous Version | Text Only | Print | Product List | Glossary On
Versions: 1 2 3 4 5 6 7 8 9 10 11 12 13 14 15 16 17 18 19 20 21 22 23 24 25 26 27 28 29 30 31 32 33 34 35 36 37 38 39 40 41 42 43 44 45 46 47 48 49 50
000
ASUS46 KSTO 240815
RWRCA

NORTHERN AND CENTRAL CA REGIONAL WEATHER ROUNDUP
NATIONAL WEATHER SERVICE SACRAMENTO CA
1200 AM PST SAT FEB 24 2018

NOTE: FAIR INDICATES FEW OR NO CLOUDS BELOW 12,000 FEET WITH NO
SIGNIFICANT WEATHER AND/OR OBSTRUCTIONS TO VISIBILITY.

CAZ001-003-240900-
NORTHWEST AREA

CITY           SKY/WX    TMP DP  RH WIND       PRES   REMARKS
CRESCENT CITY  CLOUDY    44  34  67 E3        30.46S
UKIAH          CLEAR     33  26  75 CALM      30.42R
$$

CAZ006-505>513-240900-
BAY AREA

CITY           SKY/WX    TMP DP  RH WIND       PRES   REMARKS
SANTA ROSA     CLEAR     33  29  85 CALM      30.39S
SAN RAFAEL     N/A       41  MM  MM MISG
NAPA           CLEAR     32  26  78 CALM      30.40S
CONCORD        CLEAR     39  27  62 S6        30.41R WCI  35
OAKLAND CITY   N/A      MM  MM  MM MISG
OAKLAND        CLEAR     37  29  72 E5        30.41S WCI  33
SAN FRAN CITY  N/A       44  MM  55 MISG
SAN FRAN ARPT  CLEAR     45  36  70 NW5       30.40S
LIVERMORE      CLEAR     32  18  56 CALM      30.40R
HAYWARD        CLEAR     39  25  57 E5        30.41R
REDWOOD CITY   N/A       35  MM  69 MISG
MOFFETT ARPT   CLEAR     39  26  59 CALM      30.42R
SAN JOSE ARPT  CLEAR     41  25  53 CALM      30.42R
$$
CAZ034-037-514>518-240900-
CENTRAL COAST

CITY           SKY/WX    TMP DP  RH WIND       PRES   REMARKS
WATSONVILLE    CLEAR     34  24  67 NW6       30.42R WCI  29
SALINAS        CLEAR     36  30  79 CALM      30.42R
MONTEREY       CLEAR     39  31  72 E7        30.41S WCI  34
SAN LUIS OBISP CLEAR     42  17  36 N6        30.39R
SANTA MARIA    CLEAR     39  18  42 CALM      30.37S
$$
CAZ015-016-240900-
NORTHERN SACRAMENTO VALLEY

CITY           SKY/WX    TMP DP  RH WIND       PRES   REMARKS
REDDING        CLEAR     32  21  64 CALM      30.36S
RED BLUFF      CLEAR     33  18  53 NW5       30.38S WCI  29
OROVILLE       CLEAR     36  24  62 CALM      30.39S
$$
CAZ016>018-240900-
SOUTHERN SACRAMENTO VALLEY

CITY           SKY/WX    TMP DP  RH WIND       PRES   REMARKS
AUBURN         CLEAR     36  21  55 E5        30.34R WCI  32
BEALE AFB      CLEAR     32  22  64 E6        30.37S WCI  27
LINCOLN        FAIR      28  23  80 E5        30.38R WCI  23
MARYSVILLE     CLEAR     30  24  78 CALM      30.39S
SAC INTL ARPT  CLEAR     36  20  52 CALM      30.38S
MATHER AIRPORT NOT AVBL
DOWNTOWN SAC   N/A       38  MM  MM MISG
SAC EXEC ARPT  CLEAR     33  23  66 CALM      30.39R
VACAVILLE      CLEAR     31  21  66 SW3       30.39F
TRAVIS AFB     CLEAR     28  22  81 SW3       30.37S
$$
CAZ019>021-240900-
SAN JOAQUIN VALLEY

CITY           SKY/WX    TMP DP  RH WIND       PRES   REMARKS
STOCKTON       CLEAR     38  20  48 W8        30.38S WCI  32
MODESTO        CLEAR     39  17  41 W3        30.38R
MERCED         CLEAR     33  19  56 W9        30.38R WCI  25
LEMOORE        CLEAR     37  16  42 NW10      30.40R WCI  30
FRESNO         PTCLDY    40  22  48 W3        30.40R
HANFORD        CLEAR     37  19  48 NW6       30.41R WCI  32
PORTERVILLE    CLEAR     31  26  82 SE5       30.40R WCI  26
BAKERSFIELD    CLEAR     41  24  51 E5        30.39R
$$
CAZ011-012-071-240900-
NORTHERN MOUNTAINS

CITY           SKY/WX    TMP DP  RH WIND       PRES   REMARKS
YREKA          PTCLDY    28  19  69 CALM      30.33F
MOUNT SHASTA   PTCLDY    30  11  45 CALM      30.29S
ALTURAS        CLOUDY    19  12  74 CALM      30.27F
$$
CAZ011-012-071-240900-
SIERRA NEVADA MTNS

CITY           SKY/WX    TMP DP  RH WIND       PRES   REMARKS
BLUE CANYON    CLEAR     28  -4  25 NE5       30.25S WCI  23
TRUCKEE        CLEAR      5   3  92 CALM      30.27F
TAHOE VLY ARPT CLEAR      3  -1  83 S5        30.25S WCI  -6
MAMMOTH LAKES  FAIR       4  -5  68 N3        30.23R
$$




USA.gov is the U.S. government's official web portal to all federal, state and local government web resources and services.